Total_Precipitation_Accumulation
0.04 0.10 0.11 0.14 0.13 0.17 0.59 1.25 1.42 1.26 0.84 0.69 0.67 0.45 0.62 0.63 0.92 1.10 1.23 1.35 1.53 1.59 1.54 1.25 1.11 0.80 0.65 0.62 0.90 1.24 1.13 1.54
0.05 0.16 0.16 0.13 0.10 0.21 0.52 0.98 1.41 0.76 0.43 0.34 0.49 0.50 0.53 0.47 0.55 0.88 1.17 1.12 1.22 1.51 2.03 1.83 1.65 1.24 1.02 1.06 1.08 1.21 1.25 1.49
0.02 0.07 0.05 0.06 0.13 0.43 0.53 0.59 0.76 0.68 0.47 0.39 0.35 0.39 0.57 0.47 0.62 0.74 0.92 1.16 1.38 1.59 1.62 1.73 1.64 1.87 1.65 1.32 1.42 1.39 1.25 1.43
0.03 0.03 0.04 0.03 0.04 0.25 0.34 0.46 0.52 0.55 0.56 0.64 0.63 0.75 0.78 0.82 0.63 0.60 0.70 1.02 1.36 1.58 1.25 1.86 2.22 1.99 1.80 2.01 2.09 2.10 2.06 2.18
0.00 0.00 0.00 0.02 0.13 0.48 0.42 0.44 0.45 0.47 0.53 0.58 0.60 0.73 0.56 0.46 0.53 0.51 0.69 0.63 1.01 1.54 1.56 1.42 1.88 1.87 1.70 1.77 2.15 2.46 2.83 2.75
0.02 0.02 0.02 0.04 0.18 0.49 0.50 0.62 0.68 0.55 0.61 0.63 0.61 0.60 0.54 0.55 0.60 0.66 0.74 0.80 0.74 1.13 1.41 1.60 1.50 1.79 1.82 1.89 2.06 2.19 2.14 2.41
0.07 0.09 0.12 0.11 0.22 0.52 0.66 0.71 0.64 0.60 0.74 0.82 0.62 0.58 0.60 0.74 0.82 0.81 0.87 0.92 1.04 1.13 1.45 1.84 1.96 1.61 1.84 2.04 2.02 2.19 2.21 2.48
0.41 0.28 0.21 0.22 0.24 0.39 0.71 0.85 0.95 0.80 0.93 0.99 0.98 1.02 1.14 1.07 1.04 1.11 1.16 1.12 1.31 1.53 1.59 1.77 2.24 2.48 2.56 2.90 2.83 2.63 2.52 2.55
0.47 0.83 0.36 0.31 0.49 0.45 0.64 1.40 1.66 1.66 1.51 1.32 1.29 1.18 1.17 1.26 1.24 1.31 1.37 1.38 1.46 1.88 2.32 2.47 2.54 2.87 3.08 3.13 3.10 2.67 2.24 2.08
0.58 0.57 0.79 0.58 0.58 0.72 0.80 1.15 1.41 1.69 1.41 1.06 1.07 1.15 1.23 1.34 1.31 1.22 1.13 1.11 1.18 1.38 1.40 1.56 1.56 1.62 1.68 1.85 2.02 2.06 2.01 1.80
0.37 0.45 0.88 1.70 1.61 1.31 1.55 1.79 1.60 1.58 1.59 1.47 1.19 1.05 1.04 1.03 0.94 0.89 0.89 0.84 0.83 0.82 0.79 0.75 0.91 1.09 1.13 1.14 1.25 1.72 2.04 1.67
0.25 0.23 0.36 0.58 1.80 2.25 1.77 2.08 2.43 2.47 2.12 1.76 1.50 1.30 1.68 1.78 1.45 1.38 1.29 1.14 0.97 0.85 0.79 0.79 0.73 0.84 1.05 1.00 1.00 1.29 1.80 1.98
0.23 0.21 0.25 0.26 0.47 1.12 1.89 2.00 1.97 1.96 2.05 2.44 2.71 2.29 2.02 2.32 2.31 2.11 2.19 1.96 1.68 1.36 1.21 1.20 1.18 1.20 1.14 0.98 0.94 1.22 1.61 2.15
0.27 0.26 0.33 0.33 0.35 0.39 0.69 1.10 1.69 2.42 2.82 2.59 3.08 3.14 3.12 2.52 2.38 2.43 2.20 1.98 2.21 2.53 2.58 2.21 1.69 1.51 1.51 1.43 1.20 1.12 1.46 1.82
0.25 0.35 0.58 0.63 0.69 0.70 0.66 0.80 0.97 1.63 2.45 3.41 3.67 3.58 3.71 3.85 3.52 2.71 2.12 1.87 1.60 1.46 1.52 1.61 1.85 1.87 1.74 1.69 1.73 1.95 1.86 1.84
0.30 0.35 0.53 0.65 0.84 0.79 0.79 0.83 0.92 0.97 1.15 1.42 1.97 2.65 3.09 3.44 2.88 3.13 3.19 2.85 2.87 2.25 1.89 1.54 1.44 1.42 1.51 1.64 1.71 1.68 1.91 2.20
0.28 0.24 0.31 0.35 0.44 0.62 0.67 0.87 1.16 1.21 1.19 1.25 1.85 1.59 1.76 1.92 2.35 2.25 2.40 2.28 2.43 2.45 2.09 1.82 1.63 1.38 1.98 1.80 1.57 1.45 1.41 1.35
0.39 0.32 0.38 0.43 0.49 0.62 0.79 1.12 1.42 1.59 1.73 1.93 1.74 1.95 2.03 1.91 1.78 1.97 2.19 2.38 2.10 1.97 2.29 2.26 2.12 2.12 2.36 2.22 2.07 1.61 1.57 1.63
0.54 0.53 0.49 0.62 0.66 0.62 0.82 0.98 1.27 1.55 1.91 2.12 2.40 2.04 2.09 2.10 2.25 2.03 2.01 2.33 2.37 2.42 2.12 2.51 2.31 2.17 2.81 2.50 2.26 2.00 2.01 2.05